Probability
27 21 14 11 10 8 5 2 2 2 1 1 1 1 1 1 0 0 0 0 0 2 5 5 3 1 2 5 9 12 14 14 13 11 7 4 2 1 0 0 0 0 0
27 22 14 9 7 6 4 3 2 2 2 2 2 2 2 1 0 0 0 0 1 3 4 4 3 2 2 3 5 8 10 14 15 13 9 7 4 2 1 0 0 0 0
23 18 10 5 3 2 3 3 2 1 1 1 1 1 2 1 0 0 0 1 1 2 3 3 3 3 2 1 2 4 6 9 12 14 13 11 8 6 3 1 1 0 0
15 10 5 1 0 0 1 1 1 0 0 0 0 0 0 0 0 0 0 0 0 1 2 2 3 3 1 0 2 5 7 7 8 13 17 15 12 8 5 4 2 1 0
7 5 2 1 0 0 0 0 0 0 0 0 0 0 0 0 0 0 0 0 0 0 1 1 1 1 1 1 4 8 11 11 9 10 15 17 15 10 6 5 3 2 1
3 3 2 1 0 0 0 0 0 0 0 0 0 0 0 0 0 0 0 0 0 0 0 0 0 0 0 2 5 9 14 16 13 11 13 18 18 12 8 5 3 2 1
3 3 2 1 0 0 0 0 0 0 0 0 0 0 0 0 0 0 0 0 0 0 0 0 0 0 0 1 2 7 14 20 20 18 19 22 22 17 10 6 4 2 1
3 2 1 0 0 0 0 0 0 0 0 0 0 0 0 0 0 0 0 0 0 0 0 0 0 0 0 0 0 3 10 18 24 26 26 25 24 21 16 10 6 3 1
2 1 0 0 0 0 0 0 1 0 0 0 0 0 0 0 0 0 0 0 0 0 0 0 0 0 0 0 0 1 5 11 18 25 27 26 23 21 20 17 11 7 5
1 0 0 0 0 0 0 0 0 0 0 0 0 0 0 0 0 0 0 0 0 0 0 0 0 0 0 0 0 0 2 4 10 18 25 28 26 22 22 21 20 17 14
0 0 0 0 0 0 0 0 0 0 0 0 0 0 0 0 0 0 0 0 0 0 0 0 0 0 0 0 0 0 0 1 5 12 20 26 29 29 27 26 27 29 29
0 0 0 0 0 0 0 0 0 0 0 0 0 0 0 0 0 0 0 0 0 0 0 0 0 0 0 0 0 0 0 0 2 7 12 18 25 30 32 31 32 36 40
0 0 0 0 0 0 0 0 0 0 0 0 0 0 0 0 0 0 0 0 0 0 0 0 0 0 0 0 0 0 0 0 0 2 5 9 13 20 26 29 30 34 38
0 0 0 0 0 0 0 0 0 0 0 0 0 0 0 0 0 0 0 0 0 0 0 0 0 0 0 0 0 0 0 0 0 0 1 3 5 9 13 16 19 21 24
0 0 0 0 0 0 0 0 0 0 0 0 0 0 0 0 0 0 0 0 0 0 0 0 0 0 0 0 0 0 0 0 0 0 0 1 1 3 4 5 6 8 10
0 0 0 0 0 0 0 0 0 0 0 0 0 0 0 0 0 0 0 0 0 0 0 0 0 0 0 0 0 0 0 0 0 0 0 0 0 0 1 1 1 2 3
0 0 0 0 0 0 0 0 0 0 0 0 0 0 0 0 0 0 0 0 0 0 0 0 0 0 0 0 0 0 0 0 0 0 0 0 0 0 0 0 0 1 1
0 0 0 0 0 0 0 0 0 0 0 0 0 0 0 0 0 0 0 0 0 0 0 0 0 0 0 0 0 0 0 0 0 0 0 0 0 0 0 0 0 0 0
0 0 0 0 0 0 0 0 0 0 0 0 0 0 0 0 0 0 0 0 0 0 0 0 0 0 0 0 0 0 0 0 0 0 0 0 0 0 0 0 0 0 0
0 0 0 0 0 0 0 0 0 0 0 0 0 0 0 0 0 0 0 0 0 0 0 0 0 0 0 0 0 0 0 0 0 0 0 0 0 0 0 0 0 0 0
0 0 0 0 0 0 0 0 0 0 0 0 0 0 0 0 0 0 0 0 0 0 0 0 0 0 0 0 0 0 0 0 0 0 0 0 0 0 0 0 0 0 0
0 0 0 0 0 0 0 0 0 0 0 0 0 0 0 0 0 0 0 0 0 0 0 0 0 0 0 0 0 0 0 0 0 0 0 0 0 0 0 0 0 0 0
0 0 0 0 0 0 0 0 0 0 0 0 0 0 0 0 0 0 0 0 0 0 0 0 0 0 0 0 0 0 0 0 0 0 0 0 0 0 0 0 0 0 0
0 0 0 0 0 0 0 0 0 0 0 0 0 0 0 0 0 0 0 0 0 0 0 0 0 0 0 0 0 0 0 0 0 0 0 0 0 0 0 0 0 0 0
0 0 0 0 0 0 0 0 0 0 0 0 0 0 0 0 0 0 0 0 0 0 0 0 0 0 0 0 0 0 0 0 0 0 0 0 0 0 0 0 0 0 0
0 0 0 0 0 0 0 0 0 0 0 0 0 0 0 0 0 0 0 0 0 0 0 0 0 0 0 0 0 0 0 0 0 0 0 0 0 0 0 0 0 0 0
Wind_Speed
5 5 5 5 5 4 5 5 5 6 6 6 7 8 8 9 8 8 6 13 15 15 15 15 15 16 16 18 19 19 19 20 20 20 20 20 19 19 18 18 17 16 15
5 5 5 5 5 5 5 4 4 4 4 3 5 6 6 7 7 8 7 9 13 13 13 15 16 16 16 16 16 17 18 19 19 20 21 21 20 19 19 19 18 17 16
5 5 4 4 4 4 4 3 3 2 2 2 3 4 4 5 5 7 7 6 7 11 13 14 15 15 16 16 17 17 17 18 18 19 20 21 21 20 20 20 19 19 18
4 4 4 4 4 3 3 3 2 2 2 2 2 3 3 3 5 6 6 6 5 6 9 13 14 14 16 17 18 17 16 16 16 17 19 21 21 21 20 20 20 20 19
4 4 4 4 4 3 3 3 2 2 2 2 2 3 3 3 4 5 6 6 6 6 6 8 12 13 16 17 17 16 16 16 16 17 18 20 21 21 21 21 20 20 19
4 4 4 5 4 3 3 2 3 2 2 2 2 3 3 3 3 4 5 4 4 5 5 6 6 7 12 14 14 15 16 17 17 18 19 19 20 21 21 21 20 20 20
3 4 4 4 4 4 4 4 3 3 2 1 0 2 2 2 2 2 2 2 2 2 3 4 4 4 5 9 12 14 16 18 18 18 19 18 19 20 20 21 21 20 20
3 5 5 4 4 4 4 4 3 3 2 2 2 1 2 3 2 1 1 1 1 2 3 4 4 4 5 5 7 12 15 17 18 19 19 18 18 18 19 19 20 20 20
4 3 3 4 4 4 4 5 5 5 3 2 2 3 2 2 2 2 1 1 2 2 3 4 5 5 6 5 6 9 14 14 17 19 19 19 19 18 18 19 19 20 20
3 2 3 4 4 4 4 5 5 4 4 3 2 2 2 3 1 2 2 2 2 3 4 5 6 6 6 5 6 9 12 13 15 16 18 19 19 19 18 19 19 19 19
3 3 2 2 4 4 5 5 4 5 4 4 4 3 2 1 2 2 3 3 3 3 4 5 5 5 6 5 5 7 10 11 12 13 14 16 17 17 17 18 18 19 19
2 3 3 2 2 2 4 5 5 6 6 5 4 4 4 3 4 4 4 4 4 3 4 4 4 4 4 4 5 7 8 8 9 10 11 12 14 16 16 16 17 17 17
1 2 2 2 2 2 3 3 4 6 6 6 6 5 5 4 4 4 3 3 4 3 3 2 2 3 3 2 3 7 6 6 5 6 7 9 10 12 13 14 14 14 14
3 3 2 2 3 3 3 2 3 4 5 6 6 6 5 5 5 5 4 3 3 3 3 4 2 2 1 2 3 4 4 5 3 2 3 4 5 7 8 10 10 10 9
4 4 3 3 3 3 3 2 2 3 4 5 5 6 5 5 5 5 5 5 4 3 3 3 2 1 1 2 3 2 3 4 4 2 2 3 4 4 5 5 5 5 5
5 5 5 4 4 3 3 3 3 3 4 4 4 5 5 4 4 5 5 5 6 5 4 2 2 2 2 1 2 3 4 7 7 5 5 6 7 7 7 6 5 5 4
6 7 6 6 5 5 4 3 4 4 4 4 4 5 6 5 4 5 5 5 6 5 6 4 2 2 1 1 1 3 4 4 5 9 9 10 10 10 10 9 8 7 6
8 8 7 6 7 6 5 5 5 4 5 5 5 5 6 5 6 5 5 6 6 6 6 6 3 2 2 2 3 4 4 5 6 11 13 13 13 12 12 12 11 10 8
9 8 8 8 8 8 7 6 6 6 6 6 6 6 6 6 6 5 6 6 6 6 6 5 4 2 1 2 3 4 6 5 6 9 13 13 14 14 14 13 13 12 12
9 10 9 9 9 8 8 7 7 7 6 6 6 6 7 7 8 7 6 7 6 6 6 5 4 3 2 3 4 5 5 4 5 6 9 10 13 16 15 14 14 15 14
11 10 9 9 9 8 8 9 8 8 7 7 6 6 7 9 10 8 7 7 7 6 6 6 5 4 4 5 5 4 6 6 5 4 6 6 6 7 8 11 14 16 15
10 9 9 10 9 8 11 14 10 7 7 7 7 6 7 9 11 12 12 12 11 9 8 7 6 7 7 6 6 7 8 7 4 2 5 6 5 7 6 6 11 14 15
9 9 10 10 10 11 13 13 13 8 7 7 7 6 6 6 8 7 9 11 12 13 12 9 9 9 9 9 10 10 7 5 5 6 6 6 5 7 6 7 12 13 14
8 8 9 9 9 11 14 14 13 8 7 8 8 8 7 8 7 8 8 8 8 9 11 10 9 8 8 9 10 9 10 9 8 4 3 5 4 5 6 6 10 12 13
8 8 7 8 9 10 12 13 11 6 6 8 8 7 8 8 9 10 9 8 8 7 8 9 9 9 11 13 13 11 11 11 8 3 2 4 5 5 5 6 7 11 11
9 8 8 8 8 9 10 12 11 5 6 6 6 6 9 9 9 11 10 9 9 7 7 7 8 10 12 14 16 13 12 12 10 5 3 5 6 5 5 3 4 4 7
Wind_Direction
233 235 236 233 233 233 238 241 236 232 230 229 230 233 234 233 236 235 239 245 244 241 239 237 234 230 229 229 228 225 222 220 216 211 211 212 212 211 210 210 211 209 207
234 238 243 237 234 230 232 232 230 227 229 226 235 238 240 239 239 239 239 248 250 249 245 243 239 233 230 230 230 228 225 224 219 216 213 212 213 212 212 212 211 211 210
231 241 242 237 233 228 223 221 226 214 219 219 238 246 245 242 242 243 244 243 250 252 250 249 245 239 235 232 232 230 228 225 221 219 218 214 213 212 212 212 212 212 211
234 239 240 237 229 214 200 192 186 183 203 210 237 253 250 249 249 250 250 248 247 252 254 254 251 245 241 238 234 232 226 225 225 224 222 217 214 213 213 213 213 213 212
227 227 231 228 214 202 195 191 172 178 192 216 246 252 253 252 254 259 256 254 249 250 253 258 257 255 253 250 241 233 224 221 224 230 228 222 217 214 213 214 214 214 214
225 214 218 220 199 191 191 184 173 178 188 204 250 264 265 265 259 251 254 257 254 254 252 257 258 261 259 256 248 238 231 225 222 225 228 225 221 217 214 213 213 213 214
229 217 220 213 199 196 199 186 169 179 190 169 157 316 312 284 272 247 249 254 269 279 277 270 262 261 264 262 253 244 237 231 225 224 224 224 223 219 216 214 212 213 213
245 232 219 214 205 195 195 191 176 169 184 166 151 109 340 341 342 15 334 273 307 317 323 316 295 277 272 267 259 250 242 235 230 226 224 221 222 219 215 213 212 212 213
257 251 240 227 216 203 201 199 187 177 183 191 182 157 160 236 305 320 324 327 324 316 316 310 296 289 283 269 263 255 246 237 233 229 225 219 218 216 212 212 212 212 213
299 276 256 240 229 219 215 211 198 188 171 184 195 198 178 166 185 307 311 312 308 295 300 302 301 295 288 277 266 259 253 244 239 234 226 220 217 214 213 212 212 212 213
341 332 297 254 237 224 220 217 205 200 192 184 180 170 170 175 185 217 278 302 304 279 280 286 288 289 291 285 279 275 267 255 245 239 229 220 214 212 213 214 214 215 216
334 344 340 328 299 262 236 223 215 210 208 200 192 184 176 175 184 195 236 272 291 286 287 281 280 285 292 296 298 306 296 275 251 238 231 221 214 211 212 214 216 218 219
293 311 332 319 313 298 276 242 221 222 214 210 206 205 202 205 181 184 215 256 278 291 290 286 274 285 299 319 322 327 323 306 268 242 230 222 214 207 207 211 212 216 221
245 259 277 290 292 290 290 272 242 232 220 219 220 214 210 212 200 198 200 215 273 280 267 272 288 287 312 330 334 336 338 344 324 256 213 203 196 193 194 198 201 205 211
245 249 256 264 273 275 270 261 248 245 234 226 226 223 222 218 205 207 206 202 218 262 278 266 270 299 332 345 344 356 3 15 28 58 112 128 141 152 159 171 177 181 196
238 249 255 255 257 260 260 254 247 243 239 234 225 227 229 224 213 207 207 208 210 225 253 248 248 278 312 345 29 41 52 53 56 69 89 105 108 109 111 116 120 129 150
230 232 238 245 252 253 244 241 250 249 239 240 236 227 231 225 217 214 208 207 211 215 243 254 240 255 261 181 76 69 63 62 65 72 82 88 92 96 98 98 98 101 108
234 230 231 234 244 248 240 233 242 247 242 240 240 233 232 223 222 217 212 214 215 213 225 246 236 223 229 170 128 105 88 79 75 75 79 80 81 83 85 85 85 85 86
235 231 224 229 235 237 238 235 232 234 238 241 239 236 236 227 230 224 218 219 218 217 216 227 227 207 204 161 129 107 97 87 82 81 77 76 79 80 79 80 82 82 81
233 233 228 227 230 231 232 234 232 233 235 240 239 236 236 230 230 228 223 220 214 216 214 217 216 206 190 165 145 135 117 92 83 78 76 74 76 76 77 81 84 84 80
235 232 229 228 228 226 230 227 225 229 232 240 243 241 241 238 234 227 221 216 207 210 209 209 207 198 185 172 164 145 129 114 81 81 87 69 70 71 70 75 82 86 84
238 229 227 227 226 228 228 222 214 220 225 234 245 250 252 250 243 234 226 216 207 206 207 206 205 200 191 173 154 149 143 138 120 112 97 77 70 73 67 74 83 87 86
243 233 228 224 226 229 229 230 226 216 221 230 238 246 255 249 238 235 228 220 218 217 212 208 206 201 185 172 161 158 157 137 123 140 115 91 74 75 69 77 86 88 89
245 239 233 227 225 231 228 229 231 223 222 231 236 239 246 251 239 226 223 219 220 219 216 215 214 202 183 170 164 153 138 114 101 95 96 104 95 84 76 74 79 90 92
252 244 237 228 223 233 229 227 222 210 221 234 238 240 240 246 237 218 215 215 216 218 215 210 200 182 167 159 149 139 139 136 129 117 91 109 123 105 82 71 73 85 93
251 248 244 233 225 230 230 226 213 203 220 233 240 243 238 240 237 215 214 211 210 203 183 173 170 163 162 158 157 157 153 149 141 137 155 128 144 130 104 76 78 95 96